Regional Weather Roundup
Issued by NWS

Home | Current Version | Previous Version | Graphics & Text | Print | Product List | Glossary On
Versions: 1 2 3 4 5 6 7 8 9 10 11 12 13 14 15 16 17 18 19 20 21 22 23 24 25 26 27 28 29 30 31 32 33 34 35 36 37 38 39 40 41 42 43 44 45 46 47 48 49 50
391
ASUS44 KMEG 251710
RWRTN
TENNESSEE HOURLY STATE WEATHER ROUNDUP
NATIONAL WEATHER SERVICE MEMPHIS TN
1200 PM CDT TUE JUL 25 2017

TNZ002-004-019-021-049-052-054-088>092-251800-
WEST TENNESSEE

CITY           SKY/WX    TMP DP  RH WIND       PRES   REMARKS
MEMPHIS INTL   MOSUNNY   92  76  59 W8        30.08F HX 104
NWS MEMPHIS      N/A     93 N/A N/A MISG        N/A
JACKSON        MOSUNNY   90  76  63 VRB3      30.09S HX 101
SOMERVILLE       N/A     91  75  59 CALM      30.08S HX 102
COVINGTON      MOSUNNY   90  75  62 CALM      30.08S HX 100
UNION CITY     MOSUNNY   90  77  66 SW5       30.07S HX 102
BOLIVAR        MOSUNNY   88  75  66 CALM      30.09R HX  97
PARIS          SUNNY     88  75  66 VRB3      30.08S HX  97
HUNTINGDON     MOSUNNY   90  75  62 CALM      30.08S HX 100
LEXINGTON      PTSUNNY   88  75  66 CALM      30.09F HX  97
SELMER         MOSUNNY   90  73  58 VRB6      30.10S HX  98
SAVANNAH       SUNNY     90  75  62 SE5       30.09S HX 100
$$

TNZ008-025-027-028-033-062-065-066-251800-
NORTH MIDDLE TENNESSEE

CITY           SKY/WX    TMP DP  RH WIND       PRES   REMARKS
NASHVILLE      MOSUNNY   93  70  46 NE7       30.10F HX  99
PORTLAND       MOSUNNY   88  75  66 VRB6      30.11S HX  97
CLARKSVILLE    MOSUNNY   89  68  49 CALM      30.09F HX  93
SMYRNA         MOSUNNY   92  71  50 SE3       30.11S HX  98
COOKEVILLE     MOSUNNY   88  72  58 VRB5      30.12S HX  94
GALLATIN       MOSUNNY   91  73  55 VRB5      30.12S HX 100
CROSSVILLE     MOSUNNY   86  66  51 N7        30.18S
$$

TNZ061-075-076-078-094-096-097-251800-
SOUTH MIDDLE TENNESSEE

CITY           SKY/WX    TMP DP  RH WIND       PRES   REMARKS
FAYETTEVILLE   MOSUNNY   88  75  66 CALM      30.12S HX  97
TULLAHOMA      PTSUNNY   86  72  62 CALM      30.14S HX  92
WINCHESTER     MOSUNNY   88  73  62 VRB5      30.12S HX  96
MCMINNVILLE    MOSUNNY   90  73  58 VRB5      30.13R HX  98
COLUMBIA       MOSUNNY   88  73  62 CALM      30.09S HX  96
SHELBYVILLE    MOSUNNY   88  73  62 VRB3      30.11S HX  96
$$

TNZ017-018-042-046-047-251800-
NORTHEAST TENNESSEE

CITY           SKY/WX    TMP DP  RH WIND       PRES   REMARKS
TRI CITIES     MOSUNNY   86  66  51 NW5       30.15F
ELIZABETHTON   MOSUNNY   84  68  58 SW5       30.15F
$$

TNZ012-013-036-069-073-074-251800-
CENTRAL EAST TENNESSEE

CITY           SKY/WX    TMP DP  RH WIND       PRES   REMARKS
KNOXVILLE      MOSUNNY   88  65  46 CALM      30.11F HX  90
OAK RIDGE      PTSUNNY   89  69  51 CALM      30.13S HX  93
DOWNTOWN KNOXV SUNNY     90  72  55 CALM      30.10F HX  96
GATLINBURG       N/A     90  66  45 CALM      30.11F HX  92
MORRISTOWN     SUNNY     88  70  55 NW7       30.13S HX  92
JACKSBORO      SUNNY     88  68  51 CALM      30.16S HX  91
$$

TNZ083-085-099-251800-
SOUTHEAST TENNESSEE

CITY           SKY/WX    TMP DP  RH WIND       PRES   REMARKS
CHATTANOOGA    MOSUNNY   89  71  55 N8        30.11S HX  95
DAYTON         SUNNY     88  75  66 VRB3      30.10F HX  97
$$

SKY/WX REPORTED AS FAIR MEANS FEW OR NO CLOUDS BELOW
12 THOUSAND FEET.





USA.gov is the U.S. government's official web portal to all federal, state and local government web resources and services.